[[{"header":{"parameterUnit":"m.s-1","parameterCategory":1,"la1":30.2991,"la2":30.254,"lo1":-89.0895,"lo2":-89.0444,"dy":0.0017,"dx":0.0017,"nx":28,"ny":28,"refTime":"2024-03-20T09:00:00:Z","depth":0,"parameterNumber":2,"parameterNumberName":"U-component_of_WINDS"},"data":[0,0,0,0,0,0,0,0,0,0,0,0,0,0,0,0,0,0,0,0,0,0,0,0,0,0,0,0,0,0,0,0,0,0,0,0,0,0,0,0,0,0,0,0,0,0,0,0,0,0,0,0,0,0,0,0,0,0,2.6669,2.667,0,2.6792,2.6793,2.6795,2.6731,2.6728,2.6725,2.6722,2.6851,2.6857,2.6863,0,0,0,0,0,0,0,0,0,0,0,0,0,2.638,2.6385,2.6669,2.667,2.6672,2.6792,2.6793,2.6795,2.6732,2.6728,2.6724,2.672,2.6848,2.6856,2.6864,0,0,0,0,0,0,0,0,0,0,0,0,0,2.6504,2.6387,2.6668,2.6655,2.6655,2.6791,2.6793,2.6795,2.6733,2.6728,2.6723,2.6718,2.6846,2.6855,2.6865,2.7023,0,0,2.6895,2.6899,0,0,0,0,0,0,0,0,2.6497,2.6515,2.6655,2.6656,2.6656,2.6741,2.6738,2.6872,2.6734,2.6703,2.6722,2.6716,2.6818,2.683,2.6864,2.7029,2.7035,2.6895,2.6901,2.6906,2.6908,0,0,0,0,0,0,0,2.6489,2.6509,2.6717,2.6657,2.6658,2.6643,2.6655,2.6763,2.6787,2.6706,2.6701,2.6717,2.6818,2.6855,2.6867,2.7036,2.6895,2.6904,2.691,2.6914,2.7334,2.7339,0,0,0,0,0,0,2.6481,2.6503,2.6714,2.6721,2.6563,2.6652,2.6665,2.6719,2.6786,2.6791,2.6721,2.6713,2.6841,2.6855,2.6871,2.7057,2.6905,2.6915,2.692,2.7328,2.7335,2.7341,0,0,0,0,0,0,2.6475,2.65,2.6709,2.6611,2.6636,2.6662,2.6722,2.6724,2.6761,2.6797,2.6801,2.6754,2.6837,2.6857,2.6985,2.7061,2.6919,2.6928,2.7322,2.733,2.7338,2.7434,0,0,0,0,0,0,2.6467,2.6498,2.6559,2.6613,2.6642,2.6821,2.6727,2.673,2.6777,2.6769,2.6829,2.6835,2.6835,2.697,2.6994,2.7072,2.6935,2.7315,2.7326,2.7335,2.7424,2.7444,2.7461,0,0,0,0,0,2.6457,2.6582,2.6562,2.6588,2.6718,2.6825,2.6842,2.6839,2.6784,2.6844,2.6867,2.6833,2.7049,2.6984,2.701,2.7092,2.731,2.7323,2.7334,2.7415,2.744,2.7461,0,0,0,0,0,0,2.6539,2.6589,2.6567,2.6714,2.6766,2.6814,2.6891,2.6865,2.6934,2.6924,2.6918,2.6932,2.7063,2.7091,2.7017,2.7247,2.7171,2.7189,2.7224,2.7248,2.7266,2.7256,2.6943,0,0,0,0,0,2.6573,2.6656,2.6696,2.6822,2.6848,2.6865,2.6912,2.6905,2.6958,2.698,2.7012,2.7066,2.7145,2.7198,2.7274,2.7428,2.7439,2.7497,2.7515,2.7531,2.7546,2.7626,2.7651,2.738,2.738,2.738,0,0,2.6647,2.6685,2.6738,2.6839,2.6878,2.6963,2.6884,2.6979,2.7041,2.6995,2.7116,2.7142,2.7201,2.7341,2.7405,2.7368,2.7623,2.7546,2.7558,2.7565,2.7641,2.7666,2.7689,2.7388,2.7387,2.7385,0,0,2.6824,2.6862,2.6969,2.7009,2.7068,2.7078,2.7103,2.7156,2.717,2.7291,2.7257,2.7332,2.7471,2.7513,2.7553,2.7743,2.7713,2.7768,2.7865,2.7944,2.7965,2.7984,2.8049,2.8073,2.7783,2.7783,2.7784,0,2.6908,2.7034,2.7027,2.7123,2.7168,2.7128,2.7236,2.7275,2.7357,2.7389,2.7346,2.7516,2.7554,2.7702,2.7748,2.7783,2.781,2.776,2.7962,2.7981,2.7999,2.8061,2.8086,2.7789,2.7789,2.7788,2.7788,0,2.7133,2.7221,2.7301,2.7378,2.7432,2.7534,2.7542,2.7597,2.7585,2.7599,2.7722,2.7765,2.7847,2.7882,2.7873,2.8029,2.8003,2.7962,2.7886,2.8031,2.8089,2.8113,2.7798,2.7796,2.7794,2.7793,0,0,2.7366,2.7436,2.7465,2.7498,2.7559,2.7627,2.7727,2.7805,2.7851,2.7909,2.7991,2.8107,2.8068,2.8113,2.8108,2.8177,2.8321,2.8127,2.8128,2.8159,2.8492,2.8521,2.8549,2.8302,2.8306,2.831,2.8486,0,2.7545,2.7717,2.7712,2.7872,2.7952,2.7914,2.8,2.8046,2.8062,2.8132,2.815,2.8231,2.8175,2.8201,2.8268,2.8289,2.8387,2.8277,2.8377,2.838,2.8361,2.858,2.8612,2.8776,2.8509,2.8513,2.8516,0,2.7777,2.7839,2.8006,2.8052,2.8086,2.8163,2.8233,2.8301,2.8352,2.8359,2.8408,2.839,2.849,2.8412,2.8548,2.8473,2.8513,2.853,2.8536,2.8544,2.8456,2.8591,2.8829,2.8853,2.8552,2.8549,2.8547,0,2.7927,2.8053,2.8168,2.8198,2.8255,2.831,2.8337,2.8383,2.843,2.8491,2.8521,2.8594,2.8634,2.8691,2.8693,2.8637,2.883,2.8753,2.8837,2.8837,2.8878,2.8875,2.9123,2.8908,2.8908,2.8907,2.8907,0,2.8126,2.8229,2.8235,2.8306,2.842,2.8413,2.8526,2.8548,2.8589,2.8663,2.8635,2.8705,2.8705,2.8776,2.8779,2.889,2.8909,2.8916,2.8915,2.8917,2.8916,2.8942,2.893,2.8914,2.8912,2.8911,2.891,0,2.8312,2.8321,2.8443,2.8486,2.85,2.8581,2.8618,2.8685,2.8697,2.8791,2.8813,2.8832,2.8914,2.8922,2.9019,2.902,2.9153,2.9141,2.9135,2.9132,2.9215,2.9206,2.9487,2.9522,2.9286,2.9289,2.929,0,2.8438,2.8516,2.8566,2.8613,2.8642,2.8718,2.8764,2.8761,2.881,2.8872,2.8932,2.901,2.9073,2.9206,2.9229,2.9301,2.929,2.9383,2.93,2.9299,2.9288,2.9282,2.9289,2.9398,2.9401,2.9403,2.9405,0,2.8659,2.8658,2.8726,2.8794,2.8849,2.8904,2.8954,2.8994,2.8996,2.9053,2.9135,2.9184,2.928,2.9358,2.9429,2.9456,2.9431,2.9431,2.9453,2.9455,2.9447,2.945,2.9176,2.9424,2.9422,2.9421,2.942,2.9419,2.8817,2.8883,2.8928,2.9003,2.904,2.9087,2.9151,2.917,2.9238,2.9315,2.9309,2.9399,2.9446,2.9538,2.957,2.9641,2.961,2.9644,2.9652,2.9659,2.9666,2.9438,2.9654,2.9654,2.9653,2.9653,2.9652,0,2.9035,2.9061,2.913,2.92,2.9258,2.9228,2.9281,2.9332,2.9412,2.9457,2.9518,2.9611,2.9686,2.9714,2.9787,2.9837,2.9827,2.9856,2.9852,2.9858,2.9692,2.9663,2.9863,2.9863,2.9863,2.9863,2.9863,2.9863,2.9155,2.9263,2.9268,2.9394,2.942,2.9507,2.9539,2.9582,2.9617,2.9722,2.9783,2.98,2.9838,2.9913,2.9979,2.9985,3.0013,3.0046,3.0047,2.9891,2.987,2.985,2.9823,3.0053,3.0053,3.0207,3.0209,3.021]},{"header":{"parameterUnit":"m.s-1","parameterCategory":1,"la1":30.2991,"la2":30.254,"lo1":-89.0895,"lo2":-89.0444,"dy":0.0017,"dx":0.0017,"nx":28,"ny":28,"refTime":"2024-03-20T09:00:00:Z","depth":0,"parameterNumber":3,"parameterNumberName":"V-component_of_WINDS"},"data":[0,0,0,0,0,0,0,0,0,0,0,0,0,0,0,0,0,0,0,0,0,0,0,0,0,0,0,0,0,0,0,0,0,0,0,0,0,0,0,0,0,0,0,0,0,0,0,0,0,0,0,0,0,0,0,0,0,0,-0.3422,-0.3422,0,-0.3383,-0.3383,-0.3382,-0.3409,-0.3411,-0.3412,-0.3413,-0.3368,-0.3366,-0.3363,0,0,0,0,0,0,0,0,0,0,0,0,0,-0.3517,-0.3515,-0.3422,-0.3422,-0.3421,-0.3383,-0.3383,-0.3382,-0.3409,-0.3411,-0.3412,-0.3413,-0.3369,-0.3366,-0.3363,0,0,0,0,0,0,0,0,0,0,0,0,0,-0.3476,-0.3514,-0.3422,-0.343,-0.3431,-0.3384,-0.3383,-0.3382,-0.3409,-0.3411,-0.3412,-0.3414,-0.337,-0.3366,-0.3363,-0.3304,0,0,-0.3352,-0.3351,0,0,0,0,0,0,0,0,-0.3479,-0.3473,-0.343,-0.343,-0.343,-0.3403,-0.34,-0.3356,-0.3408,-0.3417,-0.3413,-0.3415,-0.3378,-0.3374,-0.3362,-0.3302,-0.33,-0.3352,-0.335,-0.3348,-0.3347,0,0,0,0,0,0,0,-0.3481,-0.3475,-0.3407,-0.3429,-0.3429,-0.3435,-0.3431,-0.3392,-0.3387,-0.3416,-0.3418,-0.3413,-0.3378,-0.3366,-0.3361,-0.33,-0.3352,-0.3349,-0.3347,-0.3345,-0.3191,-0.3189,0,0,0,0,0,0,-0.3484,-0.3477,-0.3408,-0.3406,-0.3459,-0.3432,-0.3427,-0.341,-0.3388,-0.3386,-0.3412,-0.3415,-0.3371,-0.3366,-0.336,-0.329,-0.3348,-0.3345,-0.3343,-0.3193,-0.319,-0.3188,0,0,0,0,0,0,-0.3486,-0.3478,-0.341,-0.3442,-0.3434,-0.3428,-0.3408,-0.3408,-0.3395,-0.3385,-0.3384,-0.34,-0.3372,-0.3365,-0.3319,-0.3289,-0.3343,-0.334,-0.3195,-0.3192,-0.3189,-0.315,0,0,0,0,0,0,-0.3489,-0.3478,-0.3456,-0.3441,-0.3432,-0.3369,-0.3406,-0.3406,-0.339,-0.3393,-0.3373,-0.3371,-0.3373,-0.3324,-0.3315,-0.3285,-0.3337,-0.3198,-0.3194,-0.319,-0.3154,-0.3147,-0.314,0,0,0,0,0,-0.3492,-0.3446,-0.3455,-0.3447,-0.3405,-0.3368,-0.3362,-0.3366,-0.3387,-0.3365,-0.3359,-0.3372,-0.3294,-0.3319,-0.3309,-0.3278,-0.32,-0.3195,-0.3191,-0.3158,-0.3148,-0.314,0,0,0,0,0,0,-0.3455,-0.3444,-0.3454,-0.3402,-0.3386,-0.3372,-0.3344,-0.3356,-0.3332,-0.3336,-0.3341,-0.3336,-0.3287,-0.3278,-0.3306,-0.3221,-0.325,-0.3244,-0.3228,-0.3219,-0.3212,-0.3214,-0.3335,0,0,0,0,0,-0.3441,-0.3414,-0.3405,-0.3359,-0.3351,-0.3349,-0.3333,-0.3338,-0.3321,-0.3314,-0.3304,-0.3285,-0.3257,-0.3238,-0.3211,-0.3154,-0.315,-0.3128,-0.3121,-0.3115,-0.3108,-0.3078,-0.3068,-0.3174,-0.3174,-0.3174,0,0,-0.3411,-0.3402,-0.3384,-0.3352,-0.334,-0.331,-0.3343,-0.331,-0.3287,-0.3308,-0.3264,-0.3256,-0.3236,-0.3185,-0.3161,-0.3176,-0.3079,-0.3109,-0.3105,-0.3101,-0.3073,-0.3063,-0.3054,-0.3171,-0.3171,-0.3172,0,0,-0.3342,-0.3333,-0.3294,-0.3283,-0.3265,-0.3265,-0.3256,-0.3241,-0.3237,-0.3194,-0.3209,-0.3183,-0.3133,-0.3119,-0.3105,-0.3033,-0.3045,-0.3024,-0.2986,-0.2956,-0.2948,-0.294,-0.2914,-0.2905,-0.3019,-0.3018,-0.3018,0,-0.3307,-0.3264,-0.3272,-0.3239,-0.3224,-0.3245,-0.3205,-0.3193,-0.3167,-0.3156,-0.3173,-0.3113,-0.3101,-0.3047,-0.303,-0.3018,-0.3007,-0.3025,-0.2949,-0.2941,-0.2935,-0.291,-0.29,-0.3016,-0.3016,-0.3017,-0.3017,0,-0.3221,-0.3191,-0.3162,-0.3139,-0.3122,-0.3085,-0.3087,-0.3069,-0.3076,-0.3073,-0.3029,-0.3016,-0.2988,-0.2975,-0.2981,-0.2922,-0.2931,-0.2949,-0.2978,-0.2922,-0.2899,-0.2889,-0.3013,-0.3013,-0.3014,-0.3015,0,0,-0.3124,-0.3109,-0.3098,-0.3088,-0.3072,-0.3049,-0.3014,-0.2988,-0.2971,-0.2954,-0.2924,-0.2883,-0.29,-0.2884,-0.2889,-0.2863,-0.2807,-0.2883,-0.2883,-0.2869,-0.2741,-0.2727,-0.2716,-0.2816,-0.2814,-0.2813,-0.2743,0,-0.3053,-0.2994,-0.3002,-0.2944,-0.2916,-0.2937,-0.2906,-0.2893,-0.289,-0.2866,-0.2863,-0.2834,-0.2858,-0.2849,-0.2825,-0.2819,-0.2781,-0.2824,-0.2787,-0.2785,-0.279,-0.2704,-0.2689,-0.2623,-0.2734,-0.2732,-0.2731,0,-0.2962,-0.2944,-0.2884,-0.2874,-0.2862,-0.2835,-0.2812,-0.2789,-0.2775,-0.2775,-0.2759,-0.2769,-0.2733,-0.2765,-0.2716,-0.2745,-0.273,-0.2726,-0.2723,-0.2718,-0.2753,-0.2696,-0.2603,-0.2592,-0.2717,-0.2718,-0.2719,0,-0.2897,-0.2857,-0.2816,-0.2807,-0.2794,-0.2775,-0.2768,-0.2756,-0.274,-0.2721,-0.2711,-0.2687,-0.2673,-0.2654,-0.2657,-0.268,-0.2606,-0.2638,-0.2604,-0.2604,-0.2586,-0.2587,-0.2488,-0.2579,-0.2579,-0.258,-0.258,0,-0.2816,-0.2778,-0.2787,-0.2761,-0.272,-0.273,-0.2688,-0.2684,-0.2673,-0.2647,-0.2663,-0.2638,-0.2645,-0.2619,-0.2622,-0.2581,-0.2574,-0.2573,-0.2573,-0.257,-0.257,-0.2559,-0.2563,-0.2577,-0.2577,-0.2578,-0.2578,0,-0.2734,-0.2739,-0.2696,-0.2689,-0.2686,-0.2656,-0.2649,-0.2625,-0.2625,-0.2592,-0.2585,-0.2584,-0.2556,-0.2558,-0.2525,-0.2527,-0.2476,-0.2482,-0.2481,-0.2482,-0.2448,-0.2451,-0.2337,-0.2322,-0.2424,-0.2423,-0.2422,0,-0.2682,-0.2654,-0.2644,-0.2629,-0.2622,-0.2597,-0.2582,-0.2591,-0.2575,-0.2557,-0.2535,-0.2509,-0.2488,-0.2442,-0.2438,-0.2413,-0.2419,-0.2381,-0.2415,-0.2413,-0.2417,-0.2418,-0.2416,-0.2373,-0.2372,-0.2371,-0.237,0,-0.2587,-0.2592,-0.2571,-0.2551,-0.2533,-0.2517,-0.2503,-0.2489,-0.2497,-0.2478,-0.2451,-0.2435,-0.2403,-0.2376,-0.2354,-0.2346,-0.2359,-0.2361,-0.2351,-0.2347,-0.2347,-0.2346,-0.2461,-0.2362,-0.2363,-0.2364,-0.2364,-0.2364,-0.2518,-0.2495,-0.2485,-0.2461,-0.2452,-0.2439,-0.2417,-0.2416,-0.2393,-0.2369,-0.2376,-0.2345,-0.2333,-0.2304,-0.2294,-0.2269,-0.2283,-0.2269,-0.2266,-0.2262,-0.2258,-0.2353,-0.2265,-0.2266,-0.2266,-0.2266,-0.2266,0,-0.2424,-0.242,-0.2398,-0.2379,-0.2361,-0.2378,-0.2363,-0.2346,-0.2319,-0.2307,-0.2288,-0.2256,-0.2232,-0.2227,-0.2203,-0.2184,-0.219,-0.2177,-0.2178,-0.2176,-0.2247,-0.2258,-0.2174,-0.2174,-0.2174,-0.2174,-0.2174,-0.2174,-0.2373,-0.2334,-0.2338,-0.2295,-0.2291,-0.2262,-0.2252,-0.224,-0.2231,-0.2196,-0.2177,-0.2175,-0.2166,-0.2142,-0.212,-0.2119,-0.2109,-0.2094,-0.2096,-0.2162,-0.2171,-0.218,-0.2189,-0.2092,-0.2092,-0.2026,-0.2026,-0.2025]}]]